Content
SEND FEEDBACK

Daily
Averages
Monthly
Summary
United States of America

PRATT, KANSAS


Home > North America > United States > Kansas
Elevation: 1950 feet     Latitude: 37 42N     Longitude: 098 44W

WEATHER
 
SELECT A DAY
Number of Records: 262,305;   Date Range: 12/2/03 - 8/12/14
 
SHARE

PRINT THIS DATA

[ ← Previous Day ]
WEATHER ALMANAC - JANUARY 23, 2013
[ Next Day → ]
[ °C ]   °F
Weather ElementAverageHighLow
Temperature36.3 °F59 °F (2:55 pm)19.4 °F (4:15 am)
Dewpoint24.6 °F32 °F (12:35 pm)15.8 °F (4:55 am)
Humidity66.2 %93 % (12:35 am)34 % (3:35 pm)
Barometer30.19 in30.31 in (11:15 pm)30.11 in (1:55 pm)
Wind Speed6.5 mph16.1 mph (8:55 pm)
Wind Gust21.9 mph (10:15 pm)
Weather ElementAverage
Visibility10 mi
Wind DirectionESE (117.6 °)

Weather ElementTotal
Precipitation---
Heating Degree Days25.8 (Base 65)
Averaged from 71 records on January 23, 2013
WEATHER CONDITIONS BREAKOUT
WIND DIRECTION BREAKOUT
WEATHER BY HOUR - JANUARY 23, 2013
[ °C ]   °F
Local TimeTemperatureDewpointHumidityBarometerVisibilityWind DirectionWind SpeedGust SpeedPrecipitationEventsConditions
12:35 AM21.2 °F19.4 °F93 %30.20 in10.0 miCalmClear
12:55 AM21.2 °F17.6 °F86 %30.21 in10.0 miCalmClear
1:15 AM23.0 °F19.4 °F86 %30.20 in10.0 miCalmClear
1:35 AM24.8 °F19.4 °F80 %30.19 in10.0 miCalmClear
1:55 AM23.0 °F19.4 °F86 %30.19 in10.0 miCalmClear
2:15 AM23.0 °F19.4 °F86 %30.19 in10.0 miCalmClear
2:35 AM23.0 °F19.4 °F86 %30.19 in10.0 miCalmClear
2:55 AM21.2 °F17.6 °F86 %30.20 in10.0 miCalmClear
3:15 AM21.2 °F17.6 °F86 %30.20 in10.0 miWNW (290°)3.5 mphClear
3:35 AM21.2 °F17.6 °F86 %30.19 in10.0 miCalmClear
3:55 AM21.2 °F17.6 °F86 %30.18 in10.0 miCalmClear
4:15 AM19.4 °F17.6 °F93 %30.18 in10.0 miCalmClear
4:35 AM19.4 °F17.6 °F93 %30.18 in10.0 miCalmClear
4:55 AM19.4 °F15.8 °F86 %30.17 in10.0 miWSW (240°)5.8 mphClear
5:15 AM19.4 °F17.6 °F93 %30.16 in10.0 miWest (260°)5.8 mphClear
5:35 AM21.2 °F19.4 °F93 %30.16 in10.0 miWest (260°)5.8 mphClear
5:55 AM21.2 °F19.4 °F93 %30.16 in7.0 miWest (260°)6.9 mphClear
6:15 AM23.0 °F19.4 °F86 %30.16 in10.0 miWest (260°)6.9 mphClear
6:35 AM23.0 °F19.4 °F86 %30.16 in10.0 miWest (270°)4.6 mphClear
6:55 AM23.0 °F19.4 °F86 %30.17 in10.0 miCalmClear
7:15 AM21.2 °F17.6 °F86 %30.18 in10.0 miCalmClear
7:35 AM21.2 °F17.6 °F86 %30.19 in10.0 miWNW (300°)5.8 mphClear
7:55 AM21.2 °F19.4 °F93 %30.19 in10.0 miWest (280°)6.9 mphClear
8:15 AM23.0 °F19.4 °F86 %30.18 in10.0 miWest (280°)5.8 mphClear
8:35 AM26.6 °F21.2 °F80 %30.18 in10.0 miWNW (290°)5.8 mphClear
8:55 AM30.2 °F23.0 °F75 %30.18 in10.0 miWest (280°)6.9 mphClear
9:15 AM32.0 °F26.6 °F80 %30.18 in10.0 miWest (260°)5.8 mphClear
9:35 AM33.8 °F26.6 °F75 %30.18 in10.0 miWest (260°)6.9 mphClear
9:55 AM35.6 °F28.4 °F75 %30.18 in10.0 miWSW (240°)8.1 mphClear
10:15 AM37.4 °F28.4 °F70 %30.19 in10.0 miSW (220°)6.9 mphClear
10:35 AM42.8 °F28.4 °F57 %30.19 in10.0 miSW (230°)9.2 mphClear
10:55 AM44.6 °F28.4 °F53 %30.19 in10.0 miSW (230°)8.1 mphClear
11:15 AM46.4 °F26.6 °F46 %30.18 in10.0 miSW (220°)10.4 mphClear
11:35 AM50.0 °F28.4 °F43 %30.19 in10.0 miSW (230°)6.9 mphClear
11:55 AM50.0 °F30.2 °F47 %30.17 in10.0 miSW (220°)8.1 mphClear
12:15 PM50.0 °F30.2 °F47 %30.16 in10.0 miSW (220°)9.2 mphClear
12:35 PM51.8 °F32.0 °F47 %30.15 in10.0 miSW (230°)9.2 mphClear
12:55 PM51.8 °F32.0 °F47 %30.14 in10.0 miWSW (240°)6.9 mphClear
1:15 PM53.6 °F32.0 °F44 %30.13 in10.0 miCalmClear
1:35 PM53.6 °F32.0 °F44 %30.12 in10.0 miCalmClear
1:55 PM55.4 °F32.0 °F41 %30.11 in10.0 miCalmClear
2:15 PM57.2 °F30.2 °F36 %30.12 in10.0 miWSW (250°)4.6 mphClear
2:35 PM57.2 °F30.2 °F36 %30.11 in10.0 miSSW (210°)3.5 mphClear
2:55 PM59.0 °F32.0 °F36 %30.11 in10.0 miSouth (190°)4.6 mphClear
3:15 PM59.0 °F32.0 °F36 %30.11 in10.0 miSouth (190°)3.5 mphClear
3:35 PM59.0 °F30.2 °F34 %30.11 in10.0 miCalmClear
3:55 PM59.0 °F32.0 °F36 %30.11 in10.0 miESE (110°)5.8 mphClear
4:15 PM59.0 °F32.0 °F36 %30.12 in10.0 miEast (90°)5.8 mphClear
4:35 PM55.4 °F32.0 °F41 %30.12 in10.0 miEast (80°)5.8 mphClear
4:55 PM55.4 °F32.0 °F41 %30.13 in10.0 miEast (80°)5.8 mphClear
5:15 PM53.6 °F32.0 °F44 %30.13 in10.0 miNE (50°)10.4 mphClear
5:35 PM50.0 °F32.0 °F50 %30.16 in10.0 miENE (70°)9.2 mphClear
5:55 PM48.2 °F32.0 °F54 %30.16 in10.0 miENE (70°)5.8 mphClear
6:15 PM44.6 °F32.0 °F61 %30.17 in10.0 miNE (40°)9.2 mphClear
6:35 PM44.6 °F30.2 °F57 %30.18 in10.0 miENE (60°)8.1 mphClear
6:55 PM41.0 °F30.2 °F65 %30.19 in10.0 miNE (40°)11.5 mphClear
7:15 PM41.0 °F26.6 °F57 %30.21 in10.0 miNE (50°)13.8 mphClear
7:35 PM37.4 °F26.6 °F65 %30.22 in10.0 miNE (50°)12.7 mphClear
7:55 PM37.4 °F24.8 °F60 %30.22 in10.0 miNE (50°)12.7 mphClear
8:15 PM35.6 °F24.8 °F65 %30.22 in10.0 miNE (50°)13.8 mphClear
8:35 PM35.6 °F23.0 °F60 %30.23 in10.0 miNE (50°)13.8 mphClear
8:55 PM35.6 °F23.0 °F60 %30.25 in10.0 miNE (50°)16.1 mphClear
9:15 PM35.6 °F23.0 °F60 %30.26 in10.0 miENE (60°)10.4 mphClear
9:35 PM33.8 °F23.0 °F65 %30.27 in10.0 miENE (60°)10.4 mphClear
9:55 PM32.0 °F23.0 °F69 %30.28 in10.0 miNE (50°)13.8 mphClear
10:15 PM32.0 °F23.0 °F69 %30.28 in10.0 miNE (50°)16.1 mph21.9 mphClear
10:35 PM32.0 °F21.2 °F64 %30.29 in10.0 miNE (50°)16.1 mphClear
10:55 PM32.0 °F21.2 °F64 %30.30 in10.0 miNE (50°)10.4 mphClear
11:15 PM30.2 °F21.2 °F69 %30.31 in10.0 miNE (50°)15.0 mphClear
11:35 PM30.2 °F21.2 °F69 %30.31 in10.0 miNE (40°)16.1 mph19.6 mphClear
11:55 PM30.2 °F19.4 °F64 %30.31 in10.0 miNE (40°)13.8 mph21.9 mphClear
Hourly data recorded from KPTT, located miles away from Pratt, Kansas







STORIES FROM OUR PARTNERS